| time (UTC) | temp C | wind direction | speed KPH | gust KPH | rain 1hr cm | rain 24hr cm | rain mn cm | humidity % | barometer mb |
| 20260831230009 | 28 | 289 | 0.0 | 8.0 | 0.00 | 0.00 | 0.00 | 20 | 1016.4 |
| 20260831225010 | 28 | 318 | 1.6 | 12.9 | 0.00 | 0.00 | 0.00 | 21 | 1016.6 |
| 20260831224009 | 28 | 303 | 3.2 | 16.1 | 0.00 | 0.00 | 0.00 | 22 | 1016.8 |
| 20260831222010 | 27 | 272 | 0.0 | 9.7 | 0.00 | 0.00 | 0.00 | 22 | 1016.9 |
| 20260831221010 | 28 | 303 | 3.2 | 14.5 | 0.00 | 0.00 | 0.00 | 22 | 1017.0 |
| 20260831220010 | 28 | 220 | 4.8 | 14.5 | 0.00 | 0.00 | 0.00 | 21 | 1016.9 |
| 20260831215009 | 28 | 343 | 6.4 | 14.5 | 0.00 | 0.00 | 0.00 | 21 | 1016.8 |
| 20260831213010 | 27 | 292 | 4.8 | 16.1 | 0.00 | 0.00 | 0.00 | 24 | 1016.9 |
| 20260831211010 | 27 | 318 | 8.0 | 14.5 | 0.00 | 0.00 | 0.00 | 25 | 1017.1 |
| 20260831210010 | 28 | 339 | 4.8 | 19.3 | 0.00 | 0.00 | 0.00 | 25 | 1017.0 |
| 20260831205009 | 28 | 1 | 3.2 | 14.5 | 0.00 | 0.00 | 0.00 | 24 | 1016.9 |
| 20260831204011 | 28 | 325 | 4.8 | 14.5 | 0.00 | 0.00 | 0.00 | 24 | 1016.9 |
| 20260831203010 | 28 | 358 | 3.2 | 16.1 | 0.00 | 0.00 | 0.00 | 24 | 1016.9 |
| 20260831202009 | 29 | 289 | 8.0 | 19.3 | 0.00 | 0.00 | 0.00 | 23 | 1016.9 |
| 20260831201010 | 29 | 271 | 4.8 | 14.5 | 0.00 | 0.00 | 0.00 | 23 | 1016.9 |
| 20260831200010 | 29 | 307 | 6.4 | 16.1 | 0.00 | 0.00 | 0.00 | 23 | 1016.9 |
| 20260831195010 | 30 | 243 | 6.4 | 19.3 | 0.00 | 0.00 | 0.00 | 22 | 1016.9 |
| 20260831194010 | 30 | 344 | 1.6 | 12.9 | 0.00 | 0.00 | 0.00 | 20 | 1016.9 |
| 20260831193010 | 30 | 3 | 0.0 | 8.0 | 0.00 | 0.00 | 0.00 | 20 | 1016.9 |
| 20260831192009 | 30 | 65 | 0.0 | 16.1 | 0.00 | 0.00 | 0.00 | 20 | 1016.9 |
| 20260831190009 | 28 | 129 | 8.0 | 16.1 | 0.00 | 0.00 | 0.00 | 20 | 1016.8 |
| 20260831185010 | 28 | 262 | 0.0 | 14.5 | 0.00 | 0.00 | 0.00 | 22 | 1016.8 |
| 20260831184010 | 28 | 264 | 3.2 | 19.3 | 0.00 | 0.00 | 0.00 | 22 | 1016.8 |
| 20260831183010 | 29 | 336 | 3.2 | 12.9 | 0.00 | 0.00 | 0.00 | 22 | 1016.7 |
| 20260831182010 | 29 | 271 | 6.4 | 14.5 | 0.00 | 0.00 | 0.00 | 22 | 1016.6 |
| 20260831181010 | 28 | 329 | 8.0 | 19.3 | 0.00 | 0.00 | 0.00 | 23 | 1016.4 |
| 20260831180009 | 28 | 74 | 0.0 | 4.8 | 0.00 | 0.00 | 0.00 | 24 | 1016.4 |
| 20260831175009 | 28 | 58 | 4.8 | 14.5 | 0.00 | 0.00 | 0.00 | 25 | 1016.4 |
| 20260831174010 | 27 | 304 | 4.8 | 12.9 | 0.00 | 0.00 | 0.00 | 26 | 1016.3 |
| 20260831173009 | 27 | 313 | 3.2 | 14.5 | 0.00 | 0.00 | 0.00 | 28 | 1016.3 |
| 20260831172009 | 27 | 0 | 1.6 | 14.5 | 0.00 | 0.00 | 0.00 | 28 | 1016.2 |
| 20260831165011 | 25 | 158 | 1.6 | 8.0 | 0.00 | 0.00 | 0.00 | 32 | 1015.9 |
| 20260831162009 | 24 | 124 | 0.0 | 8.0 | 0.00 | 0.00 | 0.00 | 37 | 1015.9 |
| 20260831161010 | 23 | 148 | 0.0 | 0.0 | 0.00 | 0.00 | 0.00 | 40 | 1015.9 |
| 20260831160010 | 22 | 148 | 1.6 | 9.7 | 0.00 | 0.00 | 0.00 | 43 | 1015.9 |
| 20260831155009 | 21 | 119 | 1.6 | 9.7 | 0.00 | 0.00 | 0.00 | 46 | 1016.0 |
| 20260831154009 | 20 | 149 | 1.6 | 11.3 | 0.00 | 0.00 | 0.00 | 48 | 1016.0 |
| 20260831152009 | 18 | 151 | 0.0 | 8.0 | 0.00 | 0.00 | 0.00 | 53 | 1015.9 |
| 20260831150009 | 17 | 137 | 3.2 | 11.3 | 0.00 | 0.00 | 0.00 | 57 | 1015.7 |
| 20260831145009 | 16 | 122 | 1.6 | 11.3 | 0.00 | 0.00 | 0.00 | 60 | 1015.6 |
| 20260831144009 | 15 | 144 | 1.6 | 8.0 | 0.00 | 0.00 | 0.00 | 63 | 1015.3 |
| 20260831143010 | 14 | 127 | 0.0 | 8.0 | 0.00 | 0.00 | 0.00 | 66 | 1015.3 |
| 20260831142010 | 13 | 141 | 0.0 | 9.7 | 0.00 | 0.00 | 0.00 | 68 | 989.9 |
| 20260831141010 | 13 | 93 | 0.0 | 4.8 | 0.00 | 0.00 | 0.00 | 71 | 1015.0 |
| 20260831140009 | 13 | 136 | 1.6 | 4.8 | 0.00 | 0.00 | 0.00 | 72 | 1014.9 |
| 20260831135009 | 13 | 212 | 0.0 | 0.0 | 0.00 | 0.00 | 0.00 | 72 | 1014.9 |
| 20260831134009 | 13 | 212 | 0.0 | 8.0 | 0.00 | 0.00 | 0.00 | 72 | 1014.9 |
| 20260831133009 | 13 | 215 | 0.0 | 9.7 | 0.00 | 0.00 | 0.00 | 74 | 1014.8 |
| 20260831131010 | 12 | 196 | 0.0 | 0.0 | 0.00 | 0.00 | 0.00 | 77 | 1014.7 |
| 20260831125009 | 12 | 196 | 0.0 | 0.0 | 0.00 | 0.00 | 0.00 | 77 | 1014.7 |
| 20260831124012 | 12 | 196 | 0.0 | 0.0 | 0.00 | 0.00 | 0.00 | 77 | 1014.8 |
| 20260831122009 | 12 | 196 | 0.0 | 0.0 | 0.00 | 0.00 | 0.00 | 76 | 1014.7 |
| 20260831121009 | 12 | 196 | 0.0 | 0.0 | 0.00 | 0.00 | 0.00 | 76 | 1014.8 |
| 20260831115009 | 13 | 196 | 0.0 | 0.0 | 0.00 | 0.00 | 0.00 | 74 | 1014.9 |
| 20260831114009 | 13 | 196 | 0.0 | 0.0 | 0.00 | 0.00 | 0.00 | 72 | 1014.9 |
| 20260831111009 | 13 | 196 | 0.0 | 0.0 | 0.00 | 0.00 | 0.00 | 70 | 1014.9 |
| 20260831110009 | 13 | 196 | 0.0 | 0.0 | 0.00 | 0.00 | 0.00 | 70 | 1014.9 |
| 20260831105010 | 13 | 196 | 0.0 | 0.0 | 0.00 | 0.00 | 0.00 | 71 | 1014.8 |
| 20260831104009 | 13 | 196 | 0.0 | 0.0 | 0.00 | 0.00 | 0.00 | 70 | 1014.7 |
| 20260831101010 | 13 | 196 | 0.0 | 0.0 | 0.00 | 0.00 | 0.00 | 68 | 1014.7 |
| 20260831100010 | 13 | 196 | 0.0 | 0.0 | 0.00 | 0.00 | 0.00 | 67 | 1014.8 |
| 20260831095009 | 13 | 196 | 0.0 | 0.0 | 0.00 | 0.00 | 0.00 | 67 | 1014.9 |
| 20260831094010 | 13 | 196 | 0.0 | 0.0 | 0.00 | 0.00 | 0.00 | 66 | 1014.8 |
| 20260831093009 | 13 | 196 | 0.0 | 0.0 | 0.00 | 0.00 | 0.00 | 66 | 1014.8 |
| 20260831085010 | 14 | 196 | 0.0 | 0.0 | 0.00 | 0.00 | 0.00 | 65 | 1015.0 |
| 20260831084009 | 14 | 196 | 0.0 | 0.0 | 0.00 | 0.00 | 0.00 | 64 | 1015.1 |
| 20260831083010 | 14 | 196 | 0.0 | 0.0 | 0.00 | 0.00 | 0.00 | 62 | 1015.2 |
| 20260831082009 | 15 | 196 | 0.0 | 0.0 | 0.00 | 0.00 | 0.00 | 62 | 1015.3 |
| 20260831081010 | 15 | 196 | 0.0 | 0.0 | 0.00 | 0.00 | 0.00 | 60 | 1015.3 |
| 20260831080009 | 15 | 196 | 0.0 | 0.0 | 0.00 | 0.00 | 0.00 | 60 | 1015.5 |
| 20260831075010 | 15 | 196 | 0.0 | 0.0 | 0.00 | 0.00 | 0.00 | 60 | 1015.5 |
| 20260831074009 | 15 | 196 | 0.0 | 0.0 | 0.00 | 0.00 | 0.00 | 60 | 1015.5 |
| 20260831073010 | 15 | 196 | 0.0 | 4.8 | 0.00 | 0.00 | 0.00 | 60 | 1015.6 |
| 20260831072010 | 15 | 120 | 0.0 | 0.0 | 0.00 | 0.00 | 0.00 | 58 | 1015.5 |
| 20260831071009 | 15 | 120 | 0.0 | 0.0 | 0.00 | 0.00 | 0.00 | 57 | 1015.5 |
| 20260831070010 | 15 | 120 | 0.0 | 0.0 | 0.00 | 0.00 | 0.00 | 57 | 1015.5 |
| 20260831065010 | 15 | 120 | 0.0 | 0.0 | 0.00 | 0.00 | 0.00 | 57 | 1015.6 |
| 20260831064009 | 15 | 120 | 0.0 | 0.0 | 0.00 | 0.00 | 0.00 | 56 | 1015.6 |
| 20260831063010 | 15 | 120 | 0.0 | 0.0 | 0.00 | 0.00 | 0.00 | 56 | 1015.7 |
| 20260831062009 | 15 | 120 | 0.0 | 0.0 | 0.00 | 0.00 | 0.00 | 55 | 1015.7 |
| 20260831061010 | 15 | 120 | 0.0 | 0.0 | 0.00 | 0.00 | 0.00 | 54 | 1015.7 |
| 20260831060009 | 15 | 120 | 0.0 | 0.0 | 0.00 | 0.00 | 0.00 | 55 | 1015.8 |
| 20260831054009 | 16 | 120 | 0.0 | 0.0 | 0.00 | 0.00 | 0.00 | 53 | 1015.9 |
| 20260831053009 | 16 | 120 | 0.0 | 0.0 | 0.00 | 0.00 | 0.00 | 52 | 1016.1 |
| 20260831052009 | 16 | 120 | 0.0 | 8.0 | 0.00 | 0.00 | 0.00 | 51 | 1016.2 |
| 20260831050009 | 17 | 256 | 0.0 | 0.0 | 0.00 | 0.00 | 0.00 | 48 | 1016.2 |
| 20260831045009 | 17 | 256 | 0.0 | 0.0 | 0.00 | 0.00 | 0.00 | 48 | 1016.3 |
| 20260831044009 | 18 | 256 | 0.0 | 0.0 | 0.00 | 0.00 | 0.00 | 48 | 1016.3 |
| 20260831040010 | 20 | 256 | 0.0 | 0.0 | 0.00 | 0.00 | 0.00 | 44 | 1016.3 |
| 20260831035009 | 21 | 256 | 0.0 | 0.0 | 0.00 | 0.00 | 0.00 | 41 | 1016.3 |
| 20260831033009 | 22 | 256 | 0.0 | 0.0 | 0.00 | 0.00 | 0.00 | 39 | 1016.2 |
| 20260831032010 | 22 | 256 | 0.0 | 0.0 | 0.00 | 0.00 | 0.00 | 37 | 1016.2 |
| 20260831031010 | 22 | 256 | 0.0 | 0.0 | 0.00 | 0.00 | 0.00 | 34 | 1016.2 |
| 20260831030010 | 23 | 256 | 0.0 | 0.0 | 0.00 | 0.00 | 0.00 | 34 | 1016.3 |
| 20260831025010 | 23 | 256 | 0.0 | 0.0 | 0.00 | 0.00 | 0.00 | 33 | 1016.3 |
| 20260831024010 | 24 | 256 | 0.0 | 0.0 | 0.00 | 0.00 | 0.00 | 32 | 1016.3 |
| 20260831023009 | 25 | 256 | 0.0 | 0.0 | 0.00 | 0.00 | 0.00 | 31 | 1016.3 |
| 20260831022010 | 25 | 256 | 0.0 | 0.0 | 0.00 | 0.00 | 0.00 | 31 | 1016.3 |
| 20260831021009 | 25 | 256 | 0.0 | 0.0 | 0.00 | 0.00 | 0.00 | 29 | 1016.3 |
| 20260831020010 | 26 | 256 | 0.0 | 0.0 | 0.00 | 0.00 | 0.00 | 29 | 1016.3 |
| 20260831015010 | 26 | 256 | 0.0 | 0.0 | 0.00 | 0.00 | 0.00 | 28 | 1016.3 |
| 20260831014010 | 26 | 256 | 0.0 | 0.0 | 0.00 | 0.00 | 0.00 | 28 | 1016.3 |
| 20260831013010 | 27 | 256 | 0.0 | 0.0 | 0.00 | 0.00 | 0.00 | 27 | 1016.4 |
| 20260831012010 | 27 | 256 | 0.0 | 0.0 | 0.00 | 0.00 | 0.00 | 26 | 1016.6 |
| 20260831011010 | 27 | 256 | 0.0 | 9.7 | 0.00 | 0.00 | 0.00 | 25 | 1016.6 |
| 20260831010010 | 27 | 24 | 1.6 | 11.3 | 0.00 | 0.00 | 0.00 | 24 | 1016.6 |
| 20260831005010 | 28 | 0 | 0.0 | 8.0 | 0.00 | 0.00 | 0.00 | 24 | 1016.6 |
| 20260831004010 | 28 | 230 | 3.2 | 11.3 | 0.00 | 0.00 | 0.00 | 22 | 1016.7 |
| 20260831003010 | 29 | 254 | 0.0 | 11.3 | 0.00 | 0.00 | 0.00 | 22 | 1016.7 |
| 20260831002010 | 28 | 219 | 0.0 | 9.7 | 0.00 | 0.00 | 0.00 | 22 | 1016.7 |
| 20260831001010 | 29 | 332 | 0.0 | 14.5 | 0.00 | 0.00 | 0.00 | 22 | 1016.7 |
| 20260831000010 | 29 | 267 | 0.0 | 11.3 | 0.00 | 0.00 | 0.00 | 22 | 1016.8 |
| 20260830235010 | 29 | 240 | 4.8 | 14.5 | 0.00 | 0.00 | 0.00 | 22 | 1016.8 |
| 20260830234010 | 29 | 356 | 0.0 | 9.7 | 0.00 | 0.00 | 0.00 | 22 | 1016.8 |
| 20260830233010 | 29 | 271 | 1.6 | 14.5 | 0.00 | 0.00 | 0.00 | 21 | 1016.9 |
| 20260830232009 | 29 | 260 | 1.6 | 14.5 | 0.00 | 0.00 | 0.00 | 22 | 1016.9 |